Location: Crescent
(42.8242°N, 73.7329°W)
Time: 07:57:57
(UTC+00:00)

Vanguard 1 - Pass Details

Date: 20 February 2026
Orbit: 653 x 3818 km, 34.2° (Epoch: 12 March)

Event Time Altitude Azimuth Distance (km) Brightness Sun altitude
Rises 00:39:04 0° 277° (W) 6,074 15.6 -24.0°
Reaches altitude 10° 00:42:39 10° 272° (W) 5,417 14.9 -24.6°
Maximum altitude 00:59:24 50° 204° (SSW) 4,174 13.2 -27.6°
Enters shadow 01:15:25 22° 145° (SE) 5,918 13.6 -30.5°
Drops below altitude 10° 01:21:11 10° 138° (SE) 6,819 - -31.5°
Sets 01:26:28 0° 133° (SE) 7,676 - -32.5°
